DW9852 Weather Reports


time (UTC)temp
C
wind
direction
speed
KPH
gust
KPH
rain 1hr
cm
rain 24hr
cm
rain mn
cm
humidity
%
barometer
mb
20260507023048 18 0 0.0 1.6 0.00 0.00 0.00 81 1014.8
20260507022540 18 0 0.0 0.0 0.00 0.00 0.00 81 1014.7
20260507022040 18 0 0.0 4.8 0.00 0.00 0.00 81 1014.7
20260507021549 19 0 0.0 4.8 0.00 0.00 0.00 81 1014.7
20260507021038 19 0 0.0 6.4 0.00 0.00 0.00 81 1014.7
20260507020540 19 0 0.0 12.9 0.00 0.00 0.00 81 1014.4
20260507020100 19 360 0.0 12.9 0.00 0.00 0.00 80 1014.5
20260507015539 19 0 3.2 12.9 0.00 0.00 0.00 80 1014.3
20260507015040 20 0 0.0 6.4 0.00 0.00 0.00 79 1014.1
20260507014557 20 0 0.0 6.4 0.00 0.00 0.00 79 1014.5
20260507014039 20 0 0.0 1.6 0.00 0.00 0.00 79 1013.5
20260507013542 20 0 0.0 4.8 0.00 0.00 0.00 79 1013.7
20260507013044 20 0 0.0 6.4 0.00 0.00 0.00 79 1013.7
20260507012542 20 0 0.0 9.7 0.00 0.00 0.00 79 1013.8
20260507012040 20 0 1.6 9.7 0.00 0.00 0.00 79 1013.5
20260507011555 20 0 0.0 6.4 0.00 0.00 0.00 78 1013.6
20260507011039 21 0 1.6 6.4 0.00 0.00 0.00 78 1013.7
20260507010539 21 0 0.0 6.4 0.00 0.00 0.00 78 1013.5
20260507010050 21 0 0.0 8.0 0.00 0.00 0.00 77 1013.5
20260507005540 21 0 0.0 8.0 0.00 0.00 0.00 77 1013.5
20260507005041 21 6 0.0 6.4 0.00 0.00 0.00 77 1013.5
20260507004550 21 0 0.0 6.4 0.00 0.00 0.00 77 1013.6
20260507004039 21 1 1.6 6.4 0.00 0.00 0.00 77 1013.1
20260507003544 21 0 3.2 9.7 0.00 0.00 0.00 77 1013.1
20260507003049 21 6 0.0 9.7 0.00 0.00 0.00 77 1012.8
20260507002539 22 11 1.6 9.7 0.00 0.00 0.00 77 1012.8
20260507002040 22 36 3.2 9.7 0.00 0.00 0.00 77 1012.9
20260507001613 22 13 4.8 8.0 0.00 0.00 0.00 76 1012.9
20260507001039 22 13 4.8 8.0 0.00 0.00 0.00 75 1013.0
20260507000544 22 1 0.0 12.9 0.00 0.00 0.00 75 1012.8
20260507000058 23 7 3.2 12.9 0.00 0.00 0.00 75 1012.7
20260506235541 23 17 4.8 17.7 0.00 0.00 0.00 74 1012.5
20260506235039 23 44 3.2 17.7 0.00 0.00 0.00 74 1012.4
20260506234548 23 356 6.4 17.7 0.00 0.00 0.00 72 1012.4
20260506234039 24 19 3.2 9.7 0.00 0.00 0.00 73 1012.1
20260506233540 25 13 3.2 9.7 0.00 0.00 0.00 73 1012.1
20260506233052 25 27 0.0 9.7 0.00 0.00 0.00 73 1012.1
20260506232539 25 11 4.8 9.7 0.00 0.00 0.00 74 1011.9
20260506232037 25 16 3.2 9.7 0.00 0.00 0.00 73 1011.9
20260506231544 25 15 4.8 9.7 0.00 0.00 0.00 72 1011.8
20260506231038 26 14 4.8 9.7 0.00 0.00 0.00 72 1011.7
20260506230541 26 11 0.0 11.3 0.00 0.00 0.00 73 1011.6
20260506230052 26 356 3.2 11.3 0.00 0.00 0.00 72 1011.5
20260506225540 26 13 3.2 11.3 0.00 0.00 0.00 73 1011.5
20260506225040 26 3 4.8 11.3 0.00 0.00 0.00 73 1011.6
20260506224548 26 13 4.8 8.0 0.00 0.00 0.00 72 1011.4
20260506224039 26 3 4.8 11.3 0.00 0.00 0.00 71 1011.3
20260506223538 27 10 3.2 11.3 0.00 0.00 0.00 71 1011.4
20260506223042 27 358 3.2 12.9 0.00 0.00 0.00 71 1011.2
20260506222539 27 15 3.2 12.9 0.00 0.00 0.00 72 1011.1
20260506222041 27 11 4.8 11.3 0.00 0.00 0.00 73 1011.0
20260506221547 27 20 4.8 11.3 0.00 0.00 0.00 73 1011.0
20260506221038 27 24 3.2 11.3 0.00 0.00 0.00 73 1011.0
20260506220540 27 27 4.8 11.3 0.00 0.00 0.00 73 1010.8
20260506220059 28 14 3.2 8.0 0.00 0.00 0.00 73 1010.9
20260506215541 28 13 3.2 9.7 0.00 0.00 0.00 72 1010.9
20260506215041 28 6 3.2 9.7 0.00 0.00 0.00 70 1010.7
20260506214552 29 0 0.0 9.7 0.00 0.00 0.00 68 1010.8
20260506214040 30 39 3.2 9.7 0.00 0.00 0.00 67 1010.6
20260506213539 30 49 0.0 8.0 0.00 0.00 0.00 68 1010.8
20260506213055 30 0 0.0 8.0 0.00 0.00 0.00 68 1010.7
20260506212540 30 24 0.0 14.5 0.00 0.00 0.00 67 1010.7
20260506212041 30 0 4.8 14.5 0.00 0.00 0.00 67 1010.8
20260506211547 30 41 1.6 8.0 0.00 0.00 0.00 67 1010.7
20260506211039 31 49 0.0 4.8 0.00 0.00 0.00 64 1010.8
20260506210542 31 79 1.6 6.4 0.00 0.00 0.00 66 1010.8
20260506210100 31 190 1.6 12.9 0.00 0.00 0.00 67 1010.8
20260506205539 31 171 3.2 12.9 0.00 0.00 0.00 65 1011.0
20260506205041 31 32 3.2 12.9 0.00 0.00 0.00 66 1011.1
20260506204550 31 0 0.0 6.4 0.00 0.00 0.00 64 1010.8
20260506204039 30 0 0.0 9.7 0.00 0.00 0.00 64 1010.8
20260506203540 31 18 3.2 9.7 0.00 0.00 0.00 66 1011.0
20260506203121 30 0 4.8 9.7 0.00 0.00 0.00 68 1011.0
20260506202540 31 53 1.6 8.0 0.00 0.00 0.00 66 1011.1
20260506202040 31 37 3.2 9.7 0.00 0.00 0.00 67 1011.2
20260506201549 31 0 3.2 9.7 0.00 0.00 0.00 66 1011.2
20260506201039 31 0 0.0 0.0 0.00 0.00 0.00 69 1011.3
20260506200539 30 0 0.0 0.0 0.00 0.00 0.00 67 1011.5
20260506200051 30 0 0.0 6.4 0.00 0.00 0.00 70 1011.6
20260506195538 29 0 0.0 8.0 0.00 0.00 0.00 71 1011.7
20260506195039 29 65 1.6 8.0 0.00 0.00 0.00 71 1011.8
20260506194549 30 0 0.0 1.6 0.00 0.00 0.00 72 1011.5
20260506194040 30 0 0.0 4.8 0.00 0.00 0.00 71 1011.5
20260506193540 30 0 0.0 4.8 0.00 0.00 0.00 72 1011.7
20260506193045 30 37 0.0 8.0 0.00 0.00 0.00 71 1011.8
20260506192540 29 0 0.0 8.0 0.00 0.00 0.00 72 1011.8
20260506192040 28 0 4.8 8.0 0.00 0.00 0.00 75 1011.7
20260506191550 28 94 3.2 6.4 0.00 0.00 0.00 72 1011.8
20260506191040 28 0 1.6 8.0 0.00 0.00 0.00 75 1011.9
20260506190540 28 94 1.6 8.0 0.00 0.00 0.00 72 1011.9
20260506190053 28 0 1.6 6.4 0.00 0.00 0.00 76 1012.0
20260506185540 28 0 0.0 6.4 0.00 0.00 0.00 77 1011.9
20260506185039 28 0 0.0 8.0 0.00 0.00 0.00 77 1012.0
20260506184556 28 18 1.6 9.7 0.00 0.00 0.00 78 1012.1
20260506184039 27 0 0.0 9.7 0.00 0.00 0.00 78 1012.2
20260506183538 27 76 0.0 3.2 0.00 0.00 0.00 80 1012.2
20260506183049 27 0 0.0 1.6 0.00 0.00 0.00 80 1012.3
20260506182541 27 18 0.0 3.2 0.00 0.00 0.00 81 1012.5
20260506182042 26 0 0.0 3.2 0.00 0.00 0.00 81 1012.7
20260506181600 26 0 0.0 3.2 0.00 0.00 0.00 81 1012.7
20260506181040 27 0 0.0 3.2 0.00 0.00 0.00 81 1012.7
20260506180540 27 29 0.0 3.2 0.00 0.00 0.00 80 1012.8
20260506180046 27 0 0.0 3.2 0.00 0.00 0.00 80 1012.7
20260506175539 27 0 0.0 3.2 0.00 0.00 0.00 79 1012.8
20260506175043 27 0 0.0 6.4 0.00 0.00 0.00 78 1012.8
20260506174604 27 0 0.0 6.4 0.00 0.00 0.00 79 1012.7
20260506174040 27 75 0.0 6.4 0.00 0.00 0.00 80 1012.8
20260506173539 27 78 0.0 6.4 0.00 0.00 0.00 80 1012.8
20260506173056 27 0 1.6 6.4 0.00 0.00 0.00 82 1012.8
20260506172539 27 0 0.0 6.4 0.00 0.00 0.00 81 1012.8
20260506172040 27 0 0.0 6.4 0.00 0.00 0.00 81 1012.8
20260506171547 26 14 0.0 8.0 0.00 0.00 0.00 82 1012.9
20260506171040 26 27 1.6 8.0 0.00 0.00 0.00 81 1012.9
20260506170539 26 0 0.0 1.6 0.00 0.00 0.00 83 1012.9
20260506170050 26 0 0.0 3.2 0.00 0.00 0.00 83 1012.9
20260506165540 26 0 0.0 6.4 0.00 0.00 0.00 84 1013.0
20260506165040 26 32 1.6 6.4 0.00 0.00 0.00 84 1013.0
20260506164547 26 0 0.0 4.8 0.00 0.00 0.00 85 1013.0
20260506164038 26 41 0.0 3.2 0.00 0.00 0.00 85 1013.0
20260506163538 26 8 0.0 4.8 0.00 0.00 0.00 85 1012.8
20260506163103 26 0 0.0 4.8 0.00 0.00 0.00 85 1012.8
20260506162539 26 0 1.6 4.8 0.00 0.00 0.00 85 1012.9
20260506162040 26 47 0.0 4.8 0.00 0.00 0.00 86 1012.9
20260506161549 25 0 0.0 4.8 0.00 0.00 0.00 87 1012.8
20260506161044 25 0 1.6 4.8 0.00 0.00 0.00 87 1012.7
20260506160539 25 0 0.0 3.2 0.00 0.00 0.00 87 1012.7
20260506160051 25 43 0.0 4.8 0.00 0.00 0.00 87 1012.8
20260506155540 25 0 0.0 4.8 0.00 0.00 0.00 87 1012.6
20260506155040 25 55 0.0 4.8 0.00 0.00 0.00 87 1012.6
20260506154553 25 0 0.0 0.0 0.00 0.00 0.00 88 1012.5
20260506154043 25 0 0.0 0.0 0.00 0.00 0.00 88 1012.5
20260506153541 -17 0.0 0.0 0.00 0.00 0.00 1012.5
20260506153044 -17 0.0 0.0 0.00 0.00 0.00 1012.4
20260506152538 -17 0.0 0.0 0.00 0.00 0.00 1012.3
20260506152040 -17 0.0 0.0 0.00 0.00 0.00 1012.1
20260506151551 -17 0.0 0.0 0.00 0.00 0.00 1012.1
20260506151038 -17 0.0 0.0 0.00 0.00 0.00 1012.1
20260506150537 -17 0.0 0.0 0.00 0.00 0.00 1012.1
20260506150050 -17 0.0 0.0 0.00 0.00 0.00 1012.1
20260506145541 -17 0.0 0.0 0.00 0.00 0.00 1012.1
20260506145037 -17 0.0 0.0 0.00 0.00 0.00 1012.0
20260506144548 -17 0.0 0.0 0.00 0.00 0.00 1012.0
20260506144040 -17 0.0 0.0 0.00 0.00 0.00 1011.9
20260506143537 -17 0.0 0.0 0.00 0.00 0.00 1011.8
20260506143049 -17 0.0 0.0 0.00 0.00 0.00 1011.7
20260506142538 -17 0.0 0.0 0.00 0.00 0.00 1011.6
20260506142037 -17 0.0 0.0 0.00 0.00 0.00 1011.5
20260506141550 -17 0.0 0.0 0.00 0.00 0.00 1011.5
20260506141039 -17 0.0 0.0 0.00 0.00 0.00 1011.5
20260506140544 -17 0.0 0.0 0.00 0.00 0.00 1011.4
20260506140050 -17 0.0 0.0 0.00 0.00 0.00 1011.3
20260506135539 -17 0.0 0.0 0.00 0.00 0.00 1011.2
20260506135039 -17 0.0 0.0 0.00 0.00 0.00 1011.1
20260506134554 -17 0.0 0.0 0.00 0.00 0.00 1010.9
20260506134038 -17 0.0 0.0 0.00 0.00 0.00 1010.8
20260506133538 -17 0.0 0.0 0.00 0.00 0.00 1010.8
20260506133050 -17 0.0 0.0 0.00 0.00 0.00 1010.8
20260506132541 -17 0.0 0.0 0.00 0.00 0.00 1010.8
20260506132038 -17 0.0 0.0 0.00 0.00 0.00 1010.8
20260506131551 -17 0.0 0.0 0.00 0.00 0.00 1010.6
20260506131039 -17 0.0 0.0 0.00 0.00 0.00 1010.5
20260506130538 -17 0.0 0.0 0.00 0.00 0.00 1010.4
20260506130043 -17 0.0 0.0 0.00 0.00 0.00 1010.3
20260506125540 -17 0.0 0.0 0.00 0.00 0.00 1010.4
20260506125038 -17 0.0 0.0 0.00 0.00 0.00 1010.4
20260506124549 -17 0.0 0.0 0.00 0.00 0.00 1010.5
20260506124038 -17 0.0 0.0 0.00 0.00 0.00 1010.6
20260506123538 -17 0.0 0.0 0.00 0.00 0.00 1010.6
20260506123052 -17 0.0 0.0 0.00 0.00 0.00 1010.5
20260506122539 -17 0.0 0.0 0.00 0.00 0.00 1010.7
20260506122038 -17 0.0 0.0 0.00 0.00 0.00 1010.6
20260506121557 -17 0.0 0.0 0.00 0.00 0.00 1010.5
20260506121038 -17 0.0 0.0 0.00 0.00 0.00 1010.5
20260506120538 -17 0.0 0.0 0.00 0.00 0.00 1010.5
20260506120056 -17 0.0 0.0 0.00 0.00 0.00 1010.4
20260506115542 -17 0.0 0.0 0.00 0.00 0.00 1010.4
20260506115039 -17 0.0 0.0 0.00 0.00 0.00 1010.5
20260506114542 -17 0.0 0.0 0.00 0.00 0.00 1010.4
20260506114040 -17 0.0 0.0 0.00 0.00 0.00 1010.3
20260506113539 -17 0.0 0.0 0.00 0.00 0.00 1010.2
20260506113050 -17 0.0 0.0 0.00 0.00 0.00 1010.2
20260506112541 -17 0.0 0.0 0.00 0.00 0.00 1010.4
20260506112039 -17 0.0 0.0 0.00 0.00 0.00 1010.3
20260506111548 -17 0.0 0.0 0.00 0.00 0.00 1010.2
20260506111040 -17 0.0 0.0 0.00 0.00 0.00 1010.2
20260506110540 -17 0.0 0.0 0.00 0.00 0.00 1010.4
20260506105540 -17 0.0 0.0 0.00 0.00 0.00 1010.3
20260506105039 -17 0.0 0.0 0.00 0.00 0.00 1010.2
20260506104550 -17 0.0 0.0 0.00 0.00 0.00 1010.1
20260506104039 -17 0.0 0.0 0.00 0.00 0.00 1010.1
20260506103540 -17 0.0 0.0 0.00 0.00 0.00 1010.0
20260506103056 -17 0.0 0.0 0.00 0.00 0.00 1010.1
20260506102539 -17 0.0 0.0 0.00 0.00 0.00 1010.1
20260506102041 -17 0.0 0.0 0.00 0.00 0.00 1009.9
20260506101554 -17 0.0 0.0 0.00 0.00 0.00 1010.1
20260506101039 -17 0.0 0.0 0.00 0.00 0.00 1010.0
20260506100539 -17 0.0 0.0 0.00 0.00 0.00 1009.9
20260506100050 -17 0.0 0.0 0.00 0.00 0.00 1010.1
20260506095539 -17 0.0 0.0 0.00 0.00 0.00 1010.1
20260506095040 -17 0.0 0.0 0.00 0.00 0.00 1010.0
20260506094548 -17 0.0 0.0 0.00 0.00 0.00 1010.0
20260506094038 -17 0.0 0.0 0.00 0.00 0.00 1010.1
20260506093542 -17 0.0 0.0 0.00 0.00 0.00 1009.9
20260506093058 -17 0.0 0.0 0.00 0.00 0.00 1010.0
20260506092540 -17 0.0 0.0 0.00 0.00 0.00 1010.1
20260506092039 -17 0.0 0.0 0.00 0.00 0.00 91 1010.0
20260506091549 -17 0.0 0.0 0.00 0.00 0.00 91 1010.0
20260506091039 23 203 1.6 9.7 0.00 0.00 0.00 91 1010.1
20260506090540 23 0 1.6 11.3 0.00 0.00 0.00 90 1010.0
20260506090100 23 0 3.2 11.3 0.00 0.00 0.00 91 1010.0
20260506085539 23 0 0.0 11.3 0.00 0.00 0.00 91 1010.0
20260506085040 23 0 4.8 11.3 0.00 0.00 0.00 91 1010.3
20260506084557 23 208 3.2 9.7 0.00 0.00 0.00 90 1010.2
20260506084039 23 195 0.0 9.7 0.00 0.00 0.00 90 1010.2
20260506083540 23 226 1.6 9.7 0.00 0.00 0.00 91 1010.3
20260506083049 23 203 3.2 8.0 0.00 0.00 0.00 90 1010.4
20260506082540 23 0 0.0 3.2 0.00 0.00 0.00 90 1010.4
20260506082040 24 0 0.0 8.0 0.00 0.00 0.00 90 1010.3
20260506081603 23 0 3.2 8.0 0.00 0.00 0.00 90 1010.4
20260506081043 23 233 3.2 12.9 0.00 0.00 0.00 90 1010.3
20260506080540 23 0 1.6 12.9 0.00 0.00 0.00 90 1010.5
20260506073047 24 174 0.0 9.7 0.00 0.00 0.00 90 1010.4
20260506072539 24 192 0.0 9.7 0.00 0.00 0.00 90 1010.6
20260506072041 24 117 3.2 8.0 0.00 0.00 0.00 90 1010.4
20260506071544 24 198 1.6 12.9 0.00 0.00 0.00 89 1010.6
20260506071044 24 216 1.6 12.9 0.00 0.00 0.00 90 1010.7
20260506070539 24 158 4.8 12.9 0.00 0.00 0.00 90 1010.7
20260506062039 24 215 3.2 12.9 0.00 0.00 0.00 90 1010.6
20260506061550 24 49 4.8 12.9 0.00 0.00 0.00 90 1010.6
20260506061039 24 52 1.6 12.9 0.00 0.00 0.00 90 1010.5
20260506060539 24 31 1.6 16.1 0.00 0.00 0.00 90 1010.6
20260506051037 24 0 1.6 9.7 0.00 0.00 0.00 90 1010.7
20260506050539 24 214 1.6 9.7 0.00 0.00 0.00 89 1010.5
20260506050112 25 165 3.2 9.7 0.00 0.00 0.00 89 1010.3
20260506045039 24 0 1.6 9.7 0.00 0.00 0.00 89 1010.4
20260506044551 25 186 1.6 11.3 0.00 0.00 0.00 89 1010.3
20260506044104 25 215 3.2 12.9 0.00 0.00 0.00 89 1010.4
20260506043539 25 68 4.8 12.9 0.00 0.00 0.00 89 1010.4
20260506043050 25 234 3.2 12.9 0.00 0.00 0.00 89 1010.4
20260506042540 25 212 6.4 12.9 0.00 0.00 0.00 88 1010.4
20260506042042 25 198 4.8 14.5 0.00 0.00 0.00 88 1010.2
20260506041601 25 195 4.8 14.5 0.00 0.00 0.00 88 1010.3
20260506041041 25 86 4.8 12.9 0.00 0.00 0.00 88 1010.2
20260506040539 25 102 1.6 11.3 0.00 0.00 0.00 87 1010.0
20260506040049 25 193 3.2 14.5 0.00 0.00 0.00 87 1010.0
20260506035541 25 89 3.2 14.5 0.00 0.00 0.00 87 1010.1
20260506035039 25 196 3.2 16.1 0.00 0.00 0.00 87 1009.9
20260506034553 25 67 6.4 16.1 0.00 0.00 0.00 87 1010.0
20260506034039 25 203 6.4 14.5 0.00 0.00 0.00 87 1009.9
20260506033539 25 200 3.2 11.3 0.00 0.00 0.00 86 1009.7
20260506033047 26 138 4.8 11.3 0.00 0.00 0.00 86 1009.8
20260506032543 26 63 4.8 14.5 0.00 0.00 0.00 86 1009.7
20260506032039 26 183 4.8 14.5 0.00 0.00 0.00 85 1009.7
20260506031549 26 94 4.8 16.1 0.00 0.00 0.00 85 1009.8
20260506031040 26 178 3.2 16.1 0.00 0.00 0.00 85 1009.7
20260506030545 26 120 3.2 16.1 0.00 0.00 0.00 84 1009.5
20260506030050 26 157 1.6 9.7 0.00 0.00 0.00 84 1009.6
20260506025539 26 45 1.6 12.9 0.00 0.00 0.00 84 1009.5
20260506025039 26 176 3.2 14.5 0.00 0.00 0.00 84 1009.3
20260506024606 26 106 3.2 14.5 0.00 0.00 0.00 84 1009.3
20260506024040 26 34 4.8 17.7 0.00 0.00 0.00 83 1009.1
20260506023540 27 58 3.2 17.7 0.00 0.00 0.00 83 1009.0